AirNav   Air Wisconsin Up To $57,000 Bonus
 
 1204 users online  

TS96 El Campo Airpark
El Campo, Texas, USA

GOING TO EL CAMPO?


FAA INFORMATION EFFECTIVE 04 NOVEMBER 2021

Location

FAA Identifier: TS96
Lat/Long: 29-16-00.8980N 096-19-30.8760W
29-16.014967N 096-19.514600W
29.2669161,-96.3252433
(estimated)
Elevation: 105 ft. / 32 m (estimated)
Variation: 06E (1985)
From city: 4 miles NW of EL CAMPO, TX
Time zone: UTC -5 (UTC -6 during Standard Time)
Zip code: 77437

Airport Operations

Airport use: Private use. Permission required prior to landing
Activation date: 05/1961
Control tower: no
ARTCC: HOUSTON CENTER
FSS: MONTGOMERY COUNTY FLIGHT SERVICE STATION
Attendance: DAYLIGHT HOURS
Wind indicator: yes
Segmented circle: no
Lights: FOR RWY LGTS CALL 713-543-5272.

Airport Communications

WX AWOS-3 at ARM (9 nm E): 118.475 (979-532-2791)
WX AWOS-3PT at ELA (20 nm N): 128.475 (979-234-2665)

Nearby radio navigation aids

VOR radial/distance  VOR name  Freq  Var
ELAr173/23.7EAGLE LAKE VOR/DME116.4008E
PSXr350/30.2PALACIOS VORTAC117.3008E

Airport Services

Fuel available: 100
Parking: hangars
Airframe service: NONE
Powerplant service: NONE
Bottled oxygen: NONE
Bulk oxygen: NONE

Runway Information

Runway 17/35

Dimensions: 2450 x 60 ft. / 747 x 18 m
Surface: asphalt, in fair condition
Weight bearing capacity: 
Single wheel: 4.0
Runway edge lights: low intensity
Runway edge markings: OUTLINED WITH WHITE TIRES.
RUNWAY 17  RUNWAY 35
Traffic pattern: leftleft
Markings: NSTD, in good conditionNSTD, in good condition
Runway end identifier lights: nono
Obstructions: tree, 400 ft. from runway, 7:1 slope to clear
ROAD 27'; 4' FENCE AT 55'; SIDE FENCE AT 85'.
none
4' FENCE 85' FROM CNTRLN.

Airport Ownership and Management from official FAA records

Ownership: Privately-owned
Owner: ALAN THORNTON
P.O. BOX 288
EL CAMPO, TX 77437
Phone 979-543-5272
Manager: ALAN THORNTON
BOX 288
EL CAMPO, TX 77437
Phone 979-543-5272

Airport Operational Statistics

Aircraft based on the field: 16
Single engine airplanes: 16
    
Aircraft operations: avg 125/week
77% local general aviation
23% transient general aviation

Additional Remarks

LOOSE GRAVEL & GRASS ENCROACHMENT.
FOR CD CTC HOUSTON ARTCC AT 281-230-5622.

Instrument Procedures

There are no published instrument procedures at TS96.

Some nearby airports with instrument procedures:

KARM - Wharton Regional Airport (9 nm E)
KELA - Eagle Lake Airport (20 nm N)
26R - Jackson County Airport (21 nm SW)
KBYY - Bay City Regional Airport (30 nm SE)
KPSX - Palacios Municipal Airport (33 nm S)
 
Loc | Ops | Rwys | IFR | FBO | Links
Com | Nav | Svcs | Stats | Notes
Area around TS96 (El Campo Airpark)
 
Road maps at: MapQuest Bing Google
 
Aerial photo
No photo
 
Sectional chart

 
Airport distance calculator
Flying to El Campo Airpark? Find the distance to fly.

From to TS96

Sunrise and sunset
Times for 30-Nov-2021
 Local
(UTC-6)
 Zulu
(UTC)
Morning civil twilight06:3712:37
Sunrise07:0213:02
Sunset17:2623:26
Evening civil twilight17:5123:51

Current date and time
Zulu (UTC)  01-Dec-2021 00:44:01
Local (UTC-6)  30-Nov-2021 18:44:01
 
METAR
KARM 
9nm E 
010015Z AUTO 16005KT 10SM CLR 17/14 A3013 RMK AO2 T01700138
TAF
KVCT 
40nm SW 
301739Z 3018/0118 16005KT P6SM BKN250 FM302200 14009KT P6SM SCT250 FM010600 15003KT 5SM BR SCT005 SCT025 FM010900 VRB02KT 1/2SM FG VV003 FM011500 19004KT 4SM BR BKN015 FM011600 20005KT P6SM SCT025 SCT250
KSGR 
41nm NE 
301732Z 3018/0118 16007KT P6SM SCT250 FM010800 18002KT 5SM BR SCT005 SCT250 TEMPO 0110/0114 2SM BR FM011500 20003KT P6SM SCT250
KLBX 
46nm E 
301732Z 3018/0118 16007KT P6SM SCT250 FM010500 14001KT 5SM BR SCT250 FM010800 19001KT 2SM BR SCT003 SCT250 FM011400 20004KT P6SM SCT250
NOTAMs
Click for the latest NOTAMs
NOTAMs are issued by the DoD/FAA and will open in a separate window not controlled by AirNav.

 

 
 

Would you like to see your business listed on this page?

 If your business provides an interesting product or service to pilots, flight crews, aircraft, or users of the El Campo Airpark, you should consider listing it here.  To start the listing process, click on the button below
 
Add a business
 

Other Pages about El Campo Airpark

Update a link
 
Copyright © AirNav, LLC. All rights reserved. Privacy Policy  Contact